Eastsound, WA
on Saturday, November 24, 2012

Saturday
Previous Day Next Day
Daily Summary
 ActualAverage (KBLI)Record (KBLI)
Temperature
Mean Temperature °F 41°F  
Max Temperature 48°F 48°F 61°F (1954)
Min Temperature 35°F 35°F 8°F (1985)
Degree Days
Heating Degree Days 24 24  
Month to date heating degree days 506  
Cooling Degree Days 0 0  
Month to date cooling degree days 0  
Year to date cooling degree days 42  
Moisture
Dew Point 39°F   
Average Humidity 93    
Maximum Humidity 100    
Minimum Humidity 71    
Precipitation
Precipitation 0.00 in 0.18 in 2.64 in (2004)
Month to date precipitation 4.69  
Year to date precipitation 30.50  
Wind
Wind Speed 3 mph   
Max Wind Speed 7 mph   
Max Gust Speed mph   
Visibility 9 miles   
Events     

Key: T is trace of precipitation, MM is missing value
Source: NWS Daily Summary
Time(PST)TemperatureDew PointHumidity Pressure Visibility Wind DirectionWind SpeedGust SpeedPrecipitationEvents Conditions
12:15 AM 42.8°F 42.8°F 100% 30.10 in 10.0 miles South 3.5 mph - N/A   Clear
12:35 AM 41.0°F 41.0°F 100% 30.11 in 10.0 miles Calm Calm - N/A   Clear
12:55 AM 41.0°F 41.0°F 100% 30.11 in 10.0 miles South 4.6 mph - N/A   Clear
1:15 AM 41.0°F 41.0°F 100% 30.12 in 8.0 miles SSW 3.5 mph - N/A   Clear
1:35 AM 41.0°F 41.0°F 100% 30.13 in 10.0 miles South 4.6 mph - N/A   Clear
1:55 AM 41.0°F 41.0°F 100% 30.13 in 10.0 miles SSW 5.8 mph - N/A   Clear
2:15 AM 41.0°F 41.0°F 100% 30.14 in 10.0 miles South 3.5 mph - N/A   Partly Cloudy
2:35 AM 41.0°F 41.0°F 100% 30.15 in 10.0 miles South 4.6 mph - N/A   Mostly Cloudy
2:55 AM 41.0°F 41.0°F 100% 30.15 in 10.0 miles South 5.8 mph - N/A   Scattered Clouds
3:15 AM 41.0°F 41.0°F 100% 30.16 in 10.0 miles SSW 5.8 mph - N/A   Partly Cloudy
3:35 AM 39.2°F 39.2°F 100% 30.15 in 9.0 miles SSW 6.9 mph - N/A   Clear
3:55 AM 41.0°F 41.0°F 100% 30.16 in 10.0 miles South 6.9 mph - N/A   Clear
4:15 AM 41.0°F 39.2°F 93% 30.15 in 10.0 miles SSW 6.9 mph - N/A   Clear
4:35 AM 41.0°F 39.2°F 93% 30.16 in 10.0 miles South 3.5 mph - N/A   Clear
4:55 AM 41.0°F 39.2°F 93% 30.17 in 10.0 miles SSW 5.8 mph - N/A   Clear
5:15 AM 39.2°F 39.2°F 100% 30.16 in 10.0 miles SSW 6.9 mph - N/A   Clear
5:35 AM 41.0°F 39.2°F 93% 30.17 in 10.0 miles South 3.5 mph - N/A   Clear
5:55 AM 39.2°F 39.2°F 100% 30.18 in 10.0 miles South 3.5 mph - N/A   Clear
6:15 AM 39.2°F 39.2°F 100% 30.18 in 10.0 miles South 4.6 mph - N/A   Clear
6:35 AM 41.0°F 39.2°F 93% 30.19 in 10.0 miles South 3.5 mph - N/A   Clear
6:55 AM 41.0°F 39.2°F 93% 30.19 in 10.0 miles South 5.8 mph - N/A   Clear
7:15 AM 41.0°F 39.2°F 93% 30.19 in 10.0 miles South 3.5 mph - N/A   Partly Cloudy
7:35 AM 41.0°F 39.2°F 93% 30.20 in 10.0 miles South 3.5 mph - N/A   Partly Cloudy
7:55 AM 41.0°F 39.2°F 93% 30.20 in 10.0 miles South 3.5 mph - N/A   Clear
8:15 AM 41.0°F 39.2°F 93% 30.21 in 10.0 miles South 4.6 mph - N/A   Clear
8:35 AM 41.0°F 39.2°F 93% 30.21 in 10.0 miles South 4.6 mph - N/A   Clear
8:55 AM 42.8°F 41.0°F 93% 30.22 in 10.0 miles SSW 5.8 mph - N/A   Clear
9:15 AM 44.6°F 41.0°F 87% 30.22 in 10.0 miles South 3.5 mph - N/A   Clear
9:35 AM 44.6°F 41.0°F 87% 30.23 in 10.0 miles SSW 5.8 mph - N/A   Clear
9:55 AM 46.4°F 41.0°F 81% 30.23 in 10.0 miles SSW 5.8 mph - N/A   Clear
10:15 AM 46.4°F 39.2°F 76% 30.23 in 10.0 miles SW 3.5 mph - N/A   Clear
10:35 AM 46.4°F 39.2°F 76% 30.23 in 10.0 miles Calm Calm - N/A   Clear
10:55 AM 46.4°F 39.2°F 76% 30.24 in 10.0 miles Calm Calm - N/A   Clear
11:15 AM 46.4°F 39.2°F 76% 30.24 in 10.0 miles WSW 3.5 mph - N/A   Clear
11:35 AM 48.2°F 39.2°F 71% 30.23 in 10.0 miles Calm Calm - N/A   Clear
11:55 AM 48.2°F 39.2°F 71% 30.23 in 10.0 miles NNW 3.5 mph - N/A   Clear
12:15 PM 46.4°F 39.2°F 76% 30.23 in 10.0 miles NNW 5.8 mph - N/A   Clear
12:35 PM 46.4°F 39.2°F 76% 30.23 in 10.0 miles North 5.8 mph - N/A   Clear
12:55 PM 46.4°F 39.2°F 76% 30.23 in 10.0 miles NNW 4.6 mph - N/A   Clear
1:15 PM 46.4°F 39.2°F 76% 30.23 in 10.0 miles North 5.8 mph - N/A   Clear
1:35 PM 46.4°F 41.0°F 81% 30.24 in 10.0 miles North 4.6 mph - N/A   Clear
1:55 PM 46.4°F 41.0°F 81% 30.23 in 10.0 miles North 4.6 mph - N/A   Clear
2:15 PM 44.6°F 41.0°F 87% 30.23 in 10.0 miles Calm Calm - N/A   Clear
2:35 PM 44.6°F 41.0°F 87% 30.23 in 10.0 miles Calm Calm - N/A   Clear
3:15 PM 44.6°F 41.0°F 87% 30.23 in 10.0 miles Calm Calm - N/A   Clear
3:35 PM 44.6°F 41.0°F 87% 30.23 in 10.0 miles Calm Calm - N/A   Clear
3:55 PM 42.8°F 41.0°F 93% 30.23 in 10.0 miles Calm Calm - N/A   Partly Cloudy
4:15 PM 41.0°F 41.0°F 100% 30.23 in 7.0 miles Calm Calm - N/A   Clear
4:35 PM 41.0°F 39.2°F 93% 30.23 in 6.0 miles Calm Calm - N/A   Clear
4:55 PM 39.2°F 39.2°F 100% 30.23 in 10.0 miles Calm Calm - N/A   Clear
5:15 PM 39.2°F 39.2°F 100% 30.23 in 9.0 miles Calm Calm - N/A   Clear
5:35 PM 39.2°F 37.4°F 93% 30.22 in 8.0 miles Calm Calm - N/A   Clear
5:55 PM 37.4°F 37.4°F 100% 30.22 in 9.0 miles Calm Calm - N/A   Clear
6:15 PM 37.4°F 37.4°F 100% 30.23 in 6.0 miles Calm Calm - N/A   Clear
6:35 PM 37.4°F 37.4°F 100% 30.23 in 7.0 miles North - - N/A   Partly Cloudy
6:55 PM 37.4°F 37.4°F 100% 30.23 in 5.0 miles North - - N/A   Partly Cloudy
7:15 PM 37.4°F 37.4°F 100% 30.22 in 5.0 miles South 3.5 mph - N/A   Clear
7:35 PM 37.4°F 37.4°F 100% 30.22 in 5.0 miles Calm Calm - N/A   Clear
7:55 PM 35.6°F 35.6°F 100% 30.23 in 3.0 miles Calm Calm - N/A   Clear
8:15 PM 35.6°F 35.6°F 100% 30.23 in 5.0 miles Calm Calm - N/A   Partly Cloudy
8:35 PM 35.6°F 35.6°F 100% 30.23 in 5.0 miles Calm Calm - N/A   Scattered Clouds
8:55 PM 37.4°F 37.4°F 100% 30.24 in 5.0 miles Calm Calm - N/A   Mostly Cloudy
9:15 PM 37.4°F 37.4°F 100% 30.24 in 8.0 miles Calm Calm - N/A   Overcast
9:35 PM 37.4°F 37.4°F 100% 30.24 in 6.0 miles Calm Calm - N/A   Mostly Cloudy
9:55 PM 37.4°F 37.4°F 100% 30.25 in 9.0 miles Calm Calm - N/A   Mostly Cloudy
10:15 PM 37.4°F 37.4°F 100% 30.25 in 7.0 miles Calm Calm - N/A   Mostly Cloudy
10:35 PM 37.4°F 37.4°F 100% 30.25 in 5.0 miles North - - N/A   Partly Cloudy
10:55 PM 37.4°F 37.4°F 100% 30.25 in 4.0 miles Calm Calm - N/A   Mostly Cloudy
11:15 PM 37.4°F 37.4°F 100% 30.25 in 6.0 miles Calm Calm - N/A   Overcast
11:55 PM 37.4°F 37.4°F 100% 30.26 in 5.0 miles Calm Calm - N/A   Mostly Cloudy
Moon Phase
Nov. 24 Nov. 28 Dec. 06 Dec. 13 Dec. 20
Sunrise:07:34 AM (PST) Moon Rise:02:22 PM (PST)11/24
Sunset:04:22 PM (PST) Moon Set:03:42 AM (PST)11/24

Copyright © 2014 The Weather Underground, Inc.